This is the latest recevied weather packets stored in our database for station/object N4OOJ-13. If no packets are shown the sender has not sent any weather packets the latest 10 day(s).
| Time | Temp. | Humidity | Pressure | Rain* | Wind** | Luminosity | Snow |
|---|---|---|---|---|---|---|---|
| 1787493628 | 31.11° C | 80% | 1016.9 hPa | 0 mm | - | - | - |
| 1787493024 | 30.56° C | 84% | 1016.8 hPa | 0 mm | - | - | - |
| 1787492419 | 29.44° C | 87% | 1016.7 hPa | 0 mm | - | - | - |
| 1787491819 | 28.33° C | 90% | 1016.7 hPa | 0 mm | - | - | - |
| 1787491219 | 27.78° C | 92% | 1016.7 hPa | 0 mm | - | - | - |
| 1787490632 | 27.22° C | 93% | 1016.6 hPa | 0 mm | - | - | - |
| 1787490026 | 26.67° C | 97% | 1016.6 hPa | 0 mm | - | - | - |
| 1787489425 | 26.11° C | 99% | 1016.5 hPa | 0 mm | - | - | - |
| 1787488821 | 25° C | 99% | 1016.3 hPa | 0 mm | - | - | - |
| 1787488221 | 25° C | 99% | 1016.3 hPa | 0 mm | - | - | - |
| 1787487633 | 25° C | 99% | 1016.3 hPa | 0 mm | - | - | - |
| 1787487027 | 24.44° C | 99% | 1016.3 hPa | 0 mm | - | - | - |
| 1787486429 | 23.89° C | 99% | 1016.3 hPa | 0 mm | - | - | - |
| 1787485826 | 23.89° C | 99% | 1016.2 hPa | 0 mm | - | - | - |
| 1787485227 | 23.33° C | 99% | 1016.1 hPa | 0 mm | - | - | - |
| 1787484627 | 22.78° C | 99% | 1016 hPa | 0 mm | - | - | - |
| 1787484027 | 22.22° C | 99% | 1015.8 hPa | 0 mm | - | - | - |
| 1787483425 | 22.22° C | 99% | 1015.8 hPa | 0 mm | - | - | - |
| 1787482820 | 22.22° C | 99% | 1015.7 hPa | 0 mm | - | - | - |
| 1787482232 | 22.22° C | 99% | 1015.4 hPa | 0 mm | - | - | - |
| 1787481623 | 22.22° C | 99% | 1015.3 hPa | 0 mm | - | - | - |
| 1787481023 | 22.22° C | 99% | 1015.3 hPa | 0 mm | - | - | - |
| 1787480417 | 22.22° C | 99% | 1015.1 hPa | 0 mm | - | - | - |
| 1787479830 | 22.22° C | 99% | 1014.9 hPa | 0.25 mm | - | - | - |
| 1787479225 | 22.22° C | 99% | 1014.7 hPa | 0.25 mm | - | - | - |
* Rain latest hour (hover to see other rain measurements)
** Current wind speed in m/s (hover to see current wind gust speed)